Regional Weather Roundup
Issued by NWS Sioux Falls, SD

Home | Current Version | Previous Version | Graphics & Text | Print | Product List | Glossary On
Versions: 1 2 3 4 5 6 7 8 9 10 11 12 13 14 15 16 17 18 19 20 21 22 23 24 25 26 27 28 29 30 31 32 33 34 35 36 37 38 39 40 41 42 43 44 45 46 47 48 49 50
000
ASUS43 KFSD 240310
RWRFSD

WEATHER ROUNDUP FOR SE SOUTH DAKOTA/SW MINNESOTA/NW IOWA
NATIONAL WEATHER SERVICE SIOUX FALLS SD
1000 PM CDT WED JUL 23 2014

NOTE: "FAIR" INDICATES FEW OR NO CLOUDS BELOW 12,000 FEET WITH NO
SIGNIFICANT WEATHER AND OR OBSTRUCTIONS TO VISIBILITY.


SDZ038>040-050-052>070-240400-
SOUTHEAST SOUTH DAKOTA

CITY           SKY/WX    TMP DP  RH WIND       PRES   REMARKS
CHAMBERLAIN    CLEAR     72  57  60 SE10      30.13R
HURON          CLEAR     71  56  58 SE9       30.14R
MADISON        FAIR      63  57  82 E7        30.19S
MITCHELL       CLEAR     71  59  65 SE9       30.15S
SIOUX FALLS    PTCLDY    70  58  65 E6        30.17S
WINNER         FAIR      75  55  49 SE13      30.12R
YANKTON        CLEAR     70  63  78 E5        30.16S
$$

MNZ071-072-080-081-089-090-097-098-240400-
SOUTHWEST MINNESOTA

CITY           SKY/WX    TMP DP  RH WIND       PRES   REMARKS
FAIRMONT       CLEAR     66  54  63 NW3       30.18R
JACKSON        CLEAR     63  55  77 CALM      30.19S
LUVERNE        CLEAR     68  57  68 E3        30.19R
MARSHALL       CLEAR     70  55  60 E6        30.17
MONTEVIDEO     CLEAR     66  55  68 CALM      30.18S
PIPESTONE      CLEAR     70  55  60 CALM      30.19F
REDWOOD FALLS  CLEAR     70  54  56 CALM      30.17S
TRACY          CLEAR     66  59  76 CALM      30.19R
WINDOM         CLEAR     64  57  77 CALM      30.19S
WORTHINGTON    CLEAR     66  55  68 NE5       30.20S
$$

IAZ001>003-012>014-020>022-031-032-NEZ013-014-SDZ071-240400-
NORTHWEST IOWA

CITY           SKY/WX    TMP DP  RH WIND       PRES   REMARKS
CHEROKEE       CLEAR     68  63  84 E5        30.16S
DENISON        PTCLDY    68  66  94 E3        30.15R
ESTHERVILLE    CLEAR     63  56  78 CALM      30.18R
LE MARS        CLEAR     68  64  88 CALM      30.17S
ORANGE CITY    CLEAR     73  61  64 CALM      30.18S
SHELDON        CLEAR     64  61  88 NE5       30.17S
SIOUX CITY     CLEAR     74  60  61 E5        30.16R
SPENCER        CLEAR     66  58  75 E6        30.18R
STORM LAKE     CLEAR     66  63  88 CALM      30.19R
$$

ABBREVIATIONS USED IN REMARKS
   TC - TEMPERATURE IN CELSIUS
  WCI - WIND CHILL INDEX
   HX - HEAT INDEX
  VSB - VISIBILITY



USA.gov is the U.S. government's official web portal to all federal, state and local government web resources and services.